N1YZ Weather Reports


Display with metric or nautical units.
time (UTC)temp
F
wind
direction
speed
MPH
gust
MPH
rain 1hr
in
rain 24hr
in
rain mn
in
humidity
%
barometer
mb
20260508170038 65 17 0.0 0.0 0.00 0.00 0.00 77 1036.1
20260508165535 65 21 0.0 0.0 0.00 0.00 0.00 73 1036.1
20260508165032 65 9 0.0 0.0 0.00 0.00 0.00 72 1036.3
20260508164528 65 352 0.0 0.0 0.00 0.00 0.00 73 1036.3
20260508164025 65 341 0.0 0.0 0.00 0.00 0.00 71 1036.5
20260508163523 65 346 0.0 0.0 0.00 0.00 0.00 73 1036.5
20260508163019 65 16 0.0 0.0 0.00 0.00 0.00 71 1036.5
20260508162516 66 22 0.0 0.0 0.00 0.00 0.00 69 1036.4
20260508162013 66 347 1.0 1.0 0.00 0.00 0.00 69 1036.5
20260508161510 66 12 0.0 0.0 0.00 0.00 0.00 74 1036.3
20260508161008 66 18 0.0 0.0 0.00 0.00 0.00 73 1036.6
20260508160506 66 31 0.0 0.0 0.00 0.00 0.00 70 1036.8
20260508160003 66 344 0.0 0.0 0.00 0.00 0.00 74 1036.7
20260508155500 65 346 1.0 1.0 0.00 0.00 0.00 76 1036.7
20260508154956 65 8 0.0 0.0 0.00 0.00 0.00 77 1036.9
20260508154454 64 14 0.0 0.0 0.00 0.00 0.00 76 1037.3
20260508153950 65 347 1.0 1.0 0.00 0.00 0.00 76 1037.2
20260508153447 65 357 0.0 0.0 0.00 0.00 0.00 78 1036.9
20260508152943 64 17 0.0 0.0 0.00 0.00 0.00 75 1037.1
20260508152440 64 24 0.0 0.0 0.00 0.00 0.00 79 1036.9
20260508151936 64 22 0.0 0.0 0.00 0.00 0.00 79 1036.9
20260508151433 64 13 0.0 0.0 0.00 0.00 0.00 77 1036.8
20260508150930 63 2 0.0 0.0 0.00 0.00 0.00 80 1036.7
20260508150426 63 15 0.0 0.0 0.00 0.00 0.00 79 1037.0
20260508145922 63 11 0.0 0.0 0.00 0.00 0.00 82 1037.1
20260508145419 63 11 0.0 0.0 0.00 0.00 0.00 81 1036.9
20260508144916 63 34 0.0 0.0 0.00 0.00 0.00 81 1037.0
20260508144414 63 14 0.0 0.0 0.00 0.00 0.00 80 1037.0
20260508143911 63 29 0.0 0.0 0.00 0.00 0.00 80 1037.1
20260508143408 63 164 1.0 1.0 0.00 0.00 0.00 78 1037.0
20260508142904 63 105 0.0 0.0 0.00 0.00 0.00 80 1037.3
20260508142402 62 174 1.0 2.0 0.00 0.00 0.00 81 1037.0
20260508141857 62 14 0.0 0.0 0.00 0.00 0.00 79 1037.3
20260508141355 62 168 1.0 2.0 0.00 0.00 0.00 80 1037.1
20260508140852 61 26 0.0 0.0 0.00 0.00 0.00 84 1037.2
20260508140350 61 174 1.0 1.0 0.00 0.00 0.00 85 1037.4
20260508135845 61 358 0.0 0.0 0.00 0.00 0.00 87 1037.3
20260508135342 60 199 0.0 0.0 0.00 0.00 0.00 86 1037.9
20260508134838 60 176 0.0 0.0 0.00 0.00 0.00 86 1037.8
20260508134334 59 175 0.0 0.0 0.00 0.00 0.00 87 1037.5
20260508133831 59 179 0.0 0.0 0.00 0.00 0.00 87 1037.5
20260508133329 59 136 0.0 0.0 0.00 0.00 0.00 87 1037.7
20260508132826 59 43 0.0 0.0 0.00 0.00 0.00 86 1037.7
20260508132324 58 42 0.0 0.0 0.00 0.00 0.00 89 1037.6
20260508131820 58 42 0.0 0.0 0.00 0.00 0.00 89 1037.5
20260508131316 58 43 0.0 0.0 0.00 0.00 0.00 90 1037.6
20260508130813 57 44 0.0 0.0 0.00 0.00 0.00 92 1037.5
20260508130310 57 58 0.0 0.0 0.00 0.00 0.00 91 1037.6
20260508125806 57 71 0.0 0.0 0.00 0.00 0.00 91 1037.1
20260508125305 57 53 0.0 0.0 0.00 0.00 0.00 92 1037.4
20260508124800 56 53 0.0 0.0 0.00 0.00 0.00 92 1037.0
20260508124257 56 55 0.0 0.0 0.00 0.00 0.00 92 1037.1
20260508123755 56 23 0.0 0.0 0.00 0.00 0.00 93 1037.1
20260508123252 55 65 0.0 0.0 0.00 0.00 0.00 94 1037.2
20260508122743 55 40 0.0 0.0 0.00 0.00 0.00 95 1037.2
20260508122240 55 22 0.0 0.0 0.00 0.00 0.00 95 1036.9
20260508121737 55 37 0.0 0.0 0.00 0.00 0.00 96 1036.8
20260508121236 55 47 0.0 0.0 0.00 0.00 0.00 96 1036.6
20260508120733 55 112 0.0 0.0 0.00 0.00 0.00 97 1036.7
20260508120231 55 72 0.0 0.0 0.00 0.00 0.00 97 1036.6
20260508115728 55 89 0.0 0.0 0.00 0.00 0.00 97 1036.9
20260508115226 54 73 0.0 0.0 0.00 0.00 0.00 97 1036.7
20260508114722 54 11 0.0 0.0 0.00 0.00 0.00 98 1036.4
20260508114219 54 299 0.0 0.0 0.00 0.00 0.00 98 1036.3
20260508113715 54 330 0.0 0.0 0.00 0.00 0.00 98 1036.4
20260508113214 54 352 0.0 0.0 0.00 0.00 0.00 98 1036.3
20260508112709 54 351 0.0 0.0 0.00 0.00 0.00 98 1036.4
20260508112207 54 4 0.0 0.0 0.00 0.00 0.00 98 1036.4
20260508111703 54 5 0.0 0.0 0.00 0.00 0.00 98 1036.1
20260508111200 54 5 0.0 0.0 0.00 0.00 0.00 98 1036.1
20260508110657 54 5 0.0 0.0 0.00 0.00 0.00 98 1036.0
20260508110154 54 5 0.0 0.0 0.00 0.00 0.00 98 1035.6
20260508105649 54 5 0.0 0.0 0.00 0.00 0.00 98 1035.7
20260508105146 54 5 0.0 0.0 0.00 0.00 0.00 98 1035.8
20260508104644 54 5 0.0 0.0 0.00 0.00 0.00 98 1035.9
20260508104140 54 5 0.0 0.0 0.00 0.00 0.00 98 1035.9
20260508103637 54 5 0.0 0.0 0.00 0.00 0.00 98 1035.6
20260508103135 54 5 0.0 0.0 0.00 0.00 0.00 98 1035.7
20260508102632 54 5 0.0 0.0 0.00 0.00 0.00 98 1035.7
20260508102130 54 4 0.0 0.0 0.00 0.00 0.00 98 1035.6
20260508101621 54 4 0.0 0.0 0.00 0.00 0.00 98 1035.8
20260508101118 55 4 0.0 0.0 0.00 0.00 0.00 98 1035.5
20260508100616 55 4 0.0 0.0 0.00 0.00 0.00 98 1035.6
20260508100114 54 4 0.0 0.0 0.00 0.00 0.00 98 1035.7
20260508095610 55 4 0.0 0.0 0.00 0.00 0.00 98 1035.5
20260508095107 55 4 0.0 0.0 0.00 0.00 0.00 98 1035.0
20260508094604 55 4 0.0 0.0 0.00 0.00 0.00 98 1035.3
20260508094100 55 4 0.0 0.0 0.00 0.00 0.00 98 1034.8
20260508093558 55 4 0.0 0.0 0.00 0.00 0.00 98 1035.0
20260508093056 55 4 0.0 0.0 0.00 0.00 0.00 98 1034.6
20260508092552 55 4 0.0 0.0 0.00 0.00 0.00 98 1034.6
20260508092052 55 4 0.0 0.0 0.00 0.00 0.00 99 1034.4
20260508091548 55 3 0.0 0.0 0.00 0.00 0.00 99 1034.2
20260508091045 55 3 0.0 0.0 0.00 0.00 0.00 99 1034.1
20260508090543 55 3 0.0 0.0 0.00 0.00 0.00 99 1034.3
20260508090039 55 3 0.0 0.0 0.00 0.00 0.00 99 1034.2
20260508085536 55 3 0.0 0.0 0.00 0.00 0.00 99 1034.3
20260508085033 55 3 0.0 0.0 0.00 0.00 0.00 99 1034.2
20260508084530 55 3 0.0 0.0 0.00 0.00 0.00 99 1034.1
20260508084027 55 3 0.0 0.0 0.00 0.00 0.00 99 1034.1
20260508083524 55 3 0.0 0.0 0.00 0.00 0.00 99 1033.9
20260508083021 55 3 0.0 0.0 0.00 0.00 0.00 99 1033.9
20260508082517 55 3 0.0 0.0 0.00 0.00 0.00 99 1034.2
20260508082014 55 1 0.0 0.0 0.00 0.00 0.00 99 1034.2
20260508081512 55 1 0.0 0.0 0.00 0.00 0.00 98 1033.9
20260508081007 55 1 0.0 0.0 0.00 0.00 0.00 98 1034.1
20260508080506 55 1 0.0 0.0 0.00 0.00 0.00 98 1033.7
20260508080002 55 1 0.0 0.0 0.00 0.00 0.00 98 1034.2
20260508075459 55 1 0.0 0.0 0.00 0.00 0.00 98 1034.1
20260508074957 55 1 0.0 0.0 0.00 0.00 0.00 98 1034.2
20260508074455 56 1 0.0 0.0 0.00 0.00 0.00 98 1034.2
20260508073951 56 1 0.0 0.0 0.00 0.00 0.00 98 1034.4
20260508073448 56 1 0.0 0.0 0.00 0.00 0.00 98 1034.4
20260508072945 56 1 0.0 0.0 0.00 0.00 0.00 98 1034.5
20260508072442 56 1 0.0 0.0 0.00 0.00 0.00 97 1034.4
20260508071939 56 1 0.0 0.0 0.00 0.00 0.00 97 1034.7
20260508071437 56 1 0.0 0.0 0.00 0.00 0.00 97 1034.8
20260508070934 56 1 0.0 0.0 0.00 0.00 0.00 97 1034.7
20260508070432 56 1 0.0 0.0 0.00 0.00 0.00 96 1034.6
20260508065930 56 1 0.0 0.0 0.00 0.00 0.00 96 1034.6
20260508065428 56 1 0.0 0.0 0.00 0.00 0.00 96 1034.8
20260508064925 57 1 0.0 0.0 0.00 0.00 0.00 96 1034.6
20260508064422 57 1 0.0 0.0 0.00 0.00 0.00 96 1034.6
20260508063920 57 1 0.0 0.0 0.00 0.00 0.00 96 1034.3
20260508063418 56 1 0.0 0.0 0.00 0.00 0.00 96 1035.0
20260508062915 57 1 0.0 0.0 0.00 0.00 0.00 96 1034.8
20260508062413 57 1 0.0 0.0 0.00 0.00 0.00 96 1034.6
20260508061909 56 1 0.0 0.0 0.00 0.00 0.00 96 1034.7
20260508061407 57 1 0.0 0.0 0.00 0.00 0.00 96 1034.8
20260508060903 57 1 0.0 0.0 0.00 0.00 0.00 96 1034.8
20260508060401 57 1 0.0 0.0 0.00 0.00 0.00 96 1035.0
20260508055901 57 1 0.0 0.0 0.00 0.00 0.00 95 1034.6
20260508055359 57 1 0.0 0.0 0.00 0.00 0.00 95 1035.0
20260508054855 57 1 0.0 0.0 0.00 0.00 0.00 95 1034.8
20260508054352 57 1 0.0 0.0 0.00 0.00 0.00 95 1035.1
20260508053849 57 1 0.0 0.0 0.00 0.00 0.00 94 1035.1
20260508053347 57 1 0.0 0.0 0.00 0.00 0.00 93 1035.3
20260508052844 57 1 0.0 0.0 0.00 0.00 0.00 93 1035.5
20260508052342 57 1 0.0 0.0 0.00 0.00 0.00 93 1035.6
20260508051837 58 1 0.0 0.0 0.00 0.00 0.00 94 1035.4
20260508051332 58 1 0.0 0.0 0.00 0.00 0.00 94 1035.3
20260508050829 58 1 0.0 0.0 0.00 0.00 0.00 94 1035.2
20260508050327 58 1 0.0 0.0 0.00 0.00 0.00 93 1035.3
20260508045822 58 1 0.0 0.0 0.00 0.37 0.37 93 1035.3
20260508045320 58 1 0.0 0.0 0.00 0.37 0.37 93 1035.2
20260508044818 58 1 0.0 0.0 0.00 0.37 0.37 93 1035.3
20260508044314 58 1 0.0 0.0 0.00 0.37 0.37 93 1035.6
20260508043810 58 1 0.0 0.0 0.00 0.37 0.37 93 1035.4
20260508043308 58 1 0.0 0.0 0.00 0.37 0.37 92 1035.5
20260508042804 58 1 0.0 0.0 0.00 0.37 0.37 92 1035.6
20260508042306 58 1 0.0 0.0 0.00 0.37 0.37 92 1035.3
20260508041758 59 1 0.0 0.0 0.00 0.37 0.37 92 1035.7
20260508041255 59 1 0.0 0.0 0.00 0.37 0.37 91 1035.5
20260508040751 59 1 0.0 0.0 0.00 0.37 0.37 91 1035.1
20260508040248 59 1 0.0 0.0 0.00 0.37 0.37 91 1035.3
20260508035746 59 1 0.0 0.0 0.00 0.37 0.37 91 1035.1
20260508035243 58 1 0.0 0.0 0.00 0.37 0.37 91 1035.4
20260508034739 58 1 0.0 0.0 0.00 0.37 0.37 91 1035.4
20260508034237 59 1 0.0 0.0 0.00 0.37 0.37 91 1035.5
20260508033734 59 1 0.0 0.0 0.00 0.37 0.37 91 1035.4
20260508033232 59 1 0.0 0.0 0.00 0.37 0.37 90 1035.4
20260508032729 59 1 0.0 0.0 0.00 0.37 0.37 88 1035.5
20260508032226 59 1 0.0 0.0 0.00 0.37 0.37 88 1035.1
20260508031723 59 1 0.0 0.0 0.00 0.37 0.37 88 1035.2
20260508031219 59 1 0.0 0.0 0.00 0.37 0.37 89 1035.4
20260508030716 59 0 0.0 0.0 0.00 0.37 0.37 92 1035.3
20260508030213 59 2 0.0 0.0 0.00 0.37 0.37 92 1035.1
20260508025710 59 2 0.0 0.0 0.00 0.37 0.37 91 1035.3
20260508025207 60 3 0.0 0.0 0.00 0.37 0.37 91 1035.3
20260508024702 60 3 0.0 0.0 0.00 0.37 0.37 91 1035.1
20260508024200 60 3 0.0 0.0 0.00 0.37 0.37 92 1035.1
20260508023656 60 3 0.0 0.0 0.00 0.37 0.37 92 1035.0
20260508023154 60 3 0.0 0.0 0.00 0.37 0.37 92 1035.0
20260508022649 60 2 0.0 0.0 0.00 0.37 0.37 92 1034.8
20260508022147 60 2 0.0 0.0 0.00 0.37 0.37 92 1034.7
20260508021643 60 1 0.0 0.0 0.00 0.37 0.37 92 1034.7
20260508021138 60 1 0.0 0.0 0.00 0.37 0.37 93 1035.0
20260508020636 60 12 0.0 0.0 0.00 0.37 0.37 93 1034.8
20260508020134 60 12 0.0 0.0 0.00 0.37 0.37 92 1034.6
20260508015631 60 12 0.0 0.0 0.00 0.37 0.37 92 1034.8
20260508015128 60 12 0.0 0.0 0.00 0.37 0.37 92 1034.4
20260508014624 60 12 0.0 0.0 0.00 0.37 0.37 93 1034.4
20260508014121 60 12 0.0 0.0 0.00 0.37 0.37 93 1034.4
20260508013617 60 12 0.0 0.0 0.00 0.37 0.37 92 1034.4
20260508013114 61 13 0.0 0.0 0.00 0.37 0.37 92 1034.4
20260508012611 61 13 0.0 0.0 0.00 0.37 0.37 92 1034.5
20260508012108 61 13 0.0 0.0 0.00 0.37 0.37 91 1034.3
20260508011607 61 13 0.0 0.0 0.00 0.37 0.37 90 1034.2
20260508011104 61 13 0.0 0.0 0.00 0.37 0.37 89 1034.5
20260508010600 61 13 0.0 0.0 0.00 0.37 0.37 88 1034.6
20260508010058 62 12 0.0 0.0 0.00 0.37 0.37 89 1034.4
20260508005554 62 13 0.0 0.0 0.00 0.37 0.37 89 1034.5
20260508005051 62 13 0.0 0.0 0.00 0.37 0.37 89 1034.1
20260508004547 63 16 0.0 0.0 0.00 0.37 0.37 89 1034.2
20260508004044 63 16 0.0 0.0 0.00 0.37 0.37 89 1034.0
20260508003540 63 16 0.0 0.0 0.00 0.37 0.37 89 1034.2
20260508003038 64 16 0.0 0.0 0.00 0.37 0.37 89 1034.0
20260508002534 64 16 0.0 0.0 0.00 0.37 0.37 89 1034.2
20260508002031 65 16 0.0 0.0 0.00 0.37 0.37 88 1034.1
20260508001527 65 16 0.0 0.0 0.00 0.37 0.37 88 1034.0
20260508001023 66 16 0.0 0.0 0.00 0.37 0.37 87 1034.1
20260508000519 66 17 0.0 0.0 0.00 0.37 0.37 86 1034.0
20260508000017 66 18 0.0 0.0 0.00 0.37 0.37 85 1033.9
20260507235513 67 17 0.0 0.0 0.00 0.37 0.37 85 1033.8
20260507235011 67 17 0.0 0.0 0.00 0.37 0.37 84 1033.9
20260507234507 67 17 0.0 0.0 0.00 0.37 0.37 84 1033.5
20260507234004 67 17 0.0 0.0 0.00 0.37 0.37 84 1033.4
20260507233500 67 18 0.0 0.0 0.00 0.37 0.37 86 1033.8
20260507232959 68 17 0.0 0.0 0.00 0.37 0.37 86 1033.6
20260507232455 68 18 0.0 0.0 0.00 0.37 0.37 85 1033.4
20260507231953 68 34 0.0 0.0 0.00 0.37 0.37 82 1033.4
20260507231448 68 33 0.0 0.0 0.00 0.37 0.37 82 1033.4
20260507230946 68 22 0.0 0.0 0.00 0.37 0.37 82 1033.4
20260507230443 68 47 0.0 0.0 0.00 0.37 0.37 80 1033.4
20260507225938 68 46 0.0 0.0 0.00 0.37 0.37 82 1033.3
20260507225434 68 46 0.0 0.0 0.00 0.37 0.37 82 1033.3
20260507224931 68 11 0.0 0.0 0.00 0.37 0.37 83 1033.3
20260507224427 68 11 0.0 0.0 0.00 0.37 0.37 83 1033.5
20260507223924 68 10 0.0 0.0 0.00 0.37 0.37 84 1033.3
20260507223414 68 10 0.0 0.0 0.00 0.37 0.37 84 1033.1
20260507222911 68 43 0.0 0.0 0.00 0.37 0.37 79 1033.2
20260507222408 69 58 0.0 0.0 0.00 0.37 0.37 79 1033.0
20260507221905 69 47 0.0 0.0 0.00 0.37 0.37 77 1033.2
20260507221402 70 167 0.0 0.0 0.00 0.37 0.37 77 1033.5
20260507220857 71 61 0.0 0.0 0.00 0.37 0.37 75 1033.3
20260507220356 72 146 0.0 1.0 0.00 0.37 0.37 74 1033.1
20260507215852 71 126 0.0 0.0 0.00 0.37 0.37 72 1033.2
20260507215349 70 37 0.0 0.0 0.00 0.37 0.37 76 1033.2
20260507214846 71 112 0.0 0.0 0.00 0.37 0.37 76 1033.1
20260507214343 71 75 0.0 0.0 0.00 0.37 0.37 73 1033.2
20260507213838 71 15 0.0 0.0 0.00 0.37 0.37 78 1033.0
20260507213335 71 178 2.0 2.0 0.00 0.37 0.37 75 1033.0
20260507212832 71 21 0.0 0.0 0.00 0.37 0.37 78 1032.8
20260507212328 70 36 0.0 0.0 0.00 0.37 0.37 79 1033.1
20260507211825 69 116 0.0 0.0 0.00 0.37 0.37 76 1032.9
20260507211322 69 15 1.0 2.0 0.00 0.37 0.37 78 1032.9
20260507210818 70 47 0.0 0.0 0.00 0.37 0.37 81 1033.0
20260507210316 70 159 1.0 2.0 0.00 0.37 0.37 75 1032.6
20260507205811 70 15 0.0 0.0 0.00 0.37 0.37 80 1032.9
20260507205309 69 173 0.0 0.0 0.00 0.37 0.37 75 1032.7
20260507204805 70 41 0.0 0.0 0.00 0.37 0.37 76 1033.1
20260507204303 70 169 1.0 1.0 0.00 0.37 0.37 75 1033.0
20260507203800 70 49 0.0 0.0 0.00 0.37 0.37 78 1033.0
20260507203258 69 205 0.0 0.0 0.00 0.37 0.37 80 1033.2
20260507202754 69 208 0.0 0.0 0.00 0.37 0.37 80 1033.3
20260507202250 69 351 0.0 1.0 0.00 0.37 0.37 81 1033.4
20260507201745 70 59 0.0 0.0 0.00 0.37 0.37 77 1033.2
20260507201242 70 75 0.0 0.0 0.00 0.37 0.37 76 1033.3
20260507200738 70 36 0.0 0.0 0.00 0.37 0.37 78 1033.4
20260507200234 71 58 0.0 0.0 0.00 0.37 0.37 75 1033.4
20260507195730 72 7 0.0 0.0 0.00 0.37 0.37 76 1033.3
20260507195228 71 213 0.0 0.0 0.00 0.37 0.37 75 1033.3
20260507194725 69 14 0.0 0.0 0.00 0.37 0.37 79 1033.3
20260507194221 69 10 0.0 0.0 0.00 0.37 0.37 77 1033.7
20260507193717 69 91 0.0 0.0 0.00 0.37 0.37 78 1033.4
20260507193214 70 47 0.0 0.0 0.00 0.37 0.37 78 1033.6
20260507192710 69 166 0.0 0.0 0.00 0.37 0.37 76 1033.4
20260507192202 70 176 0.0 0.0 0.00 0.37 0.37 77 1033.6
20260507191657 69 39 0.0 0.0 0.00 0.37 0.37 81 1033.5
20260507191155 68 151 1.0 1.0 0.00 0.37 0.37 80 1033.6
20260507190652 68 354 0.0 0.0 0.00 0.37 0.37 78 1033.7
20260507190150 68 238 0.0 1.0 0.00 0.37 0.37 81 1033.4
20260507185648 68 12 0.0 0.0 0.00 0.37 0.37 87 1033.6
20260507185144 66 12 0.0 0.0 0.00 0.37 0.37 85 1033.7
20260507184642 66 353 0.0 0.0 0.00 0.37 0.37 88 1033.5
20260507184140 65 36 0.0 0.0 0.00 0.37 0.37 85 1033.6
20260507183636 65 47 0.0 0.0 0.00 0.37 0.37 89 1033.7
20260507183134 65 39 0.0 0.0 0.00 0.37 0.37 90 1033.9
20260507182630 64 36 0.0 0.0 0.00 0.37 0.37 91 1033.9
20260507182126 64 35 0.0 0.0 0.00 0.37 0.37 90 1034.2
20260507181623 64 135 0.0 0.0 0.00 0.37 0.37 91 1034.1
20260507181119 64 37 0.0 0.0 0.00 0.37 0.37 93 1034.1
20260507180615 64 43 0.0 0.0 0.00 0.37 0.37 94 1034.0
20260507180113 64 31 0.0 1.0 0.00 0.37 0.37 95 1034.1
20260507175608 64 2 0.0 0.0 0.00 0.37 0.37 95 1033.9
20260507175106 63 171 1.0 1.0 0.00 0.37 0.37 93 1034.0
20260507174603 62 79 0.0 0.0 0.00 0.37 0.37 94 1034.4
20260507174101 62 67 0.0 0.0 0.00 0.37 0.37 95 1034.3
20260507173558 62 24 0.0 0.0 0.00 0.37 0.37 94 1034.2
20260507173055 63 201 1.0 2.0 0.00 0.37 0.37 95 1034.5
20260507172550 62 45 0.0 0.0 0.00 0.37 0.37 97 1034.6
20260507172048 62 46 0.0 0.0 0.00 0.37 0.37 99 1034.6
20260507171543 61 92 0.0 0.0 0.00 0.37 0.37 99 1034.5
20260507171040 62 74 0.0 0.0 0.00 0.37 0.37 99 1034.5
20260507170537 60 98 0.0 0.0 0.00 0.37 0.37 99 1034.6